Weather History for Viroqua, WI

Change the Weather History Date:

Saturday, December 29, 2012

  Actual Average (KLSE) Record (KLSE)
Temperature  
Mean Temperature 14 °F 18 °F  
Max Temperature 21 °F 26 °F 53 °F (1999)
Min Temperature 6 °F 11 °F -22 °F (1880)
Degree Days  
Heating Degree Days 52 47  
Month to date heating degree days 1250  
Since 1 July heating degree days 2750  
Cooling Degree Days 0 0  
Month to date cooling degree days 0  
Year to date cooling degree days 782  
Moisture  
Dew Point 16 °F    
Average Humidity 95    
Maximum Humidity 100    
Minimum Humidity 85    
Precipitation  
Precipitation 0.00 in 0.03 in 0.71 in (1972)
Month to date precipitation 1.29  
Year to date precipitation 32.99  
Snow  
Snow 0.00 in 0.30 in 3.80 in (1946)
Month to date snowfall 10.7  
Since 1 July snowfall 15.0  
Snow Depth -    
Sea Level Pressure  
Sea Level Pressure 30.02 in    
Wind  
Wind Speed 9 mph (WNW)    
Max Wind Speed 17 mph    
Max Gust Speed 24 mph    
Visibility 8 miles    
Events      
T = Trace of Precipitation, MM = Missing Value Source: NWS Daily Summary

Daily Weather History Graph

Daily Weather History Graph

Search for Another Location

Airport:

Trip Planner

Search our weather history database for the weather conditions in past years. The results will help you decide how hot, cold, wet, or windy it might be!

Date:

Astronomy

Dec. 29, 2012 Rise Set
Actual Time 7:36 AM CST 4:35 PM CST
Civil Twilight 7:03 AM CST 5:08 PM CST
Nautical Twilight 6:27 AM CST 5:44 PM CST
Astronomical Twilight 5:52 AM CST 6:19 PM CST
Moon 6:11 PM CST (12/29) 8:07 AM CST (12/29)
Length of Visible Light 10h 04m
Length of Day
8h 58m
Full, 98% of the Moon is Illuminated
Dec 29
Full
Jan 4
Last Quarter
Jan 11
New
Jan 18
First Quarter
Jan 26
Full

Hourly Weather History & Observations

Time (CST) Temp. Windchill Dew Point Humidity Pressure Visibility Wind Dir Wind Speed Gust Speed Precip Events Conditions
12:15 AM 21.2 °F 12.6 °F 21.2 °F 100% 29.90 in 5.0 mi NW 6.9 mph - N/A   Overcast
12:35 AM 21.2 °F 11.7 °F 21.2 °F 100% 29.91 in 5.0 mi NW 8.1 mph - N/A   Overcast
12:55 AM 21.2 °F 12.6 °F 21.2 °F 100% 29.90 in 5.0 mi NW 6.9 mph - N/A   Overcast
1:15 AM 21.2 °F 11.7 °F 21.2 °F 100% 29.90 in 5.0 mi NNW 8.1 mph - N/A   Overcast
1:35 AM 21.2 °F 11.7 °F 21.2 °F 100% 29.90 in 5.0 mi NNW 8.1 mph - N/A   Overcast
1:55 AM 21.2 °F 11.7 °F 21.2 °F 100% 29.90 in 5.0 mi NW 8.1 mph - N/A   Overcast
2:15 AM 21.2 °F 12.6 °F 21.2 °F 100% 29.91 in 5.0 mi NW 6.9 mph - N/A   Overcast
2:35 AM 21.2 °F 13.6 °F 21.2 °F 100% 29.91 in 5.0 mi NW 5.8 mph - N/A   Overcast
2:55 AM 21.2 °F 10.1 °F 21.2 °F 100% 29.91 in 5.0 mi NW 10.4 mph - N/A   Overcast
3:15 AM 21.2 °F 11.7 °F 21.2 °F 100% 29.92 in 7.0 mi NW 8.1 mph - N/A   Overcast
3:35 AM 21.2 °F 12.6 °F 21.2 °F 100% 29.92 in 7.0 mi NW 6.9 mph - N/A   Overcast
3:55 AM 21.2 °F 12.6 °F 21.2 °F 100% 29.92 in 7.0 mi WNW 6.9 mph - N/A   Overcast
4:15 AM 21.2 °F 11.7 °F 21.2 °F 100% 29.92 in 7.0 mi WNW 8.1 mph - N/A   Overcast
4:35 AM 21.2 °F 13.6 °F 21.2 °F 100% 29.93 in 7.0 mi NW 5.8 mph - N/A   Overcast
4:55 AM 21.2 °F 10.9 °F 21.2 °F 100% 29.93 in 5.0 mi WNW 9.2 mph - N/A   Overcast
5:15 AM 21.2 °F 11.7 °F 21.2 °F 100% 29.93 in 5.0 mi NW 8.1 mph - N/A   Overcast
5:35 AM 21.2 °F 10.9 °F 21.2 °F 100% 29.93 in 7.0 mi NW 9.2 mph - N/A   Overcast
6:15 AM 21.2 °F 9.5 °F 21.2 °F 100% 29.94 in 7.0 mi NW 11.5 mph - N/A   Overcast
6:35 AM 21.2 °F 9.5 °F 21.2 °F 100% 29.95 in 10.0 mi NW 11.5 mph - N/A   Overcast
6:55 AM 21.2 °F 8.3 °F 21.2 °F 100% 29.95 in 7.0 mi NW 13.8 mph - N/A   Overcast
7:15 AM 19.4 °F 5.5 °F 19.4 °F 100% 29.95 in 10.0 mi NW 15.0 mph - N/A   Overcast
7:35 AM 19.4 °F 6.6 °F 19.4 °F 100% 29.96 in 10.0 mi NW 12.7 mph - N/A   Overcast
7:55 AM 19.4 °F 6.6 °F 19.4 °F 100% 29.97 in 7.0 mi NW 12.7 mph - N/A   Overcast
8:15 AM 19.4 °F 4.5 °F 17.6 °F 93% 29.97 in 5.0 mi NW 17.3 mph 21.9 mph N/A   Overcast
8:35 AM 19.4 °F 5.5 °F 17.6 °F 93% 29.98 in 10.0 mi NW 15.0 mph 20.7 mph N/A   Overcast
8:55 AM 19.4 °F 4.5 °F 17.6 °F 93% 29.98 in 10.0 mi NNW 17.3 mph 24.2 mph N/A   Overcast
9:15 AM 19.4 °F 5.0 °F 17.6 °F 93% 29.99 in 10.0 mi NW 16.1 mph - N/A   Overcast
9:35 AM 19.4 °F 4.5 °F 17.6 °F 93% 30.00 in 10.0 mi NW 17.3 mph - N/A   Overcast
9:55 AM 19.4 °F 5.5 °F 17.6 °F 93% 30.00 in 10.0 mi NNW 15.0 mph 18.4 mph N/A   Overcast
10:15 AM 19.4 °F 6.0 °F 17.6 °F 93% 30.01 in 10.0 mi NW 13.8 mph - N/A   Overcast
10:35 AM 19.4 °F 6.0 °F 17.6 °F 93% 30.02 in 10.0 mi NW 13.8 mph - N/A   Overcast
10:55 AM 19.4 °F 5.5 °F 17.6 °F 93% 30.01 in 10.0 mi NW 15.0 mph - N/A   Overcast
11:15 AM 19.4 °F 6.0 °F 17.6 °F 93% 30.02 in 10.0 mi NW 13.8 mph - N/A   Overcast
11:35 AM 19.4 °F 6.0 °F 17.6 °F 93% 30.02 in 10.0 mi WNW 13.8 mph - N/A   Overcast
11:55 AM 19.4 °F 6.6 °F 17.6 °F 93% 30.02 in 10.0 mi WNW 12.7 mph 17.3 mph N/A   Overcast
12:15 PM 19.4 °F 6.6 °F 17.6 °F 93% 30.01 in 10.0 mi NW 12.7 mph - N/A   Overcast
12:35 PM 19.4 °F 7.2 °F 17.6 °F 93% 30.01 in 10.0 mi NW 11.5 mph 16.1 mph N/A   Overcast
12:55 PM 21.2 °F 8.9 °F 17.6 °F 86% 30.01 in 10.0 mi WNW 12.7 mph - N/A   Overcast
1:15 PM 21.2 °F 7.8 °F 17.6 °F 86% 30.01 in 10.0 mi NW 15.0 mph - N/A   Overcast
1:35 PM 21.2 °F 10.1 °F 17.6 °F 86% 30.02 in 10.0 mi NW 10.4 mph - N/A   Overcast
1:55 PM 19.4 °F 6.6 °F 15.8 °F 86% 30.02 in 10.0 mi WNW 12.7 mph - N/A   Overcast
2:15 PM 19.4 °F 9.5 °F 17.6 °F 93% 30.02 in 10.0 mi West 8.1 mph - N/A   Overcast
2:35 PM 19.4 °F 8.6 °F 17.6 °F 93% 30.03 in 10.0 mi West 9.2 mph - N/A   Overcast
2:55 PM 19.4 °F 8.6 °F 15.8 °F 86% 30.04 in 10.0 mi WNW 9.2 mph - N/A   Overcast
3:15 PM 19.4 °F 8.6 °F 15.8 °F 86% 30.04 in 10.0 mi NW 9.2 mph - N/A   Overcast
3:35 PM 19.4 °F 8.6 °F 17.6 °F 93% 30.05 in 10.0 mi WNW 9.2 mph - N/A   Overcast
3:55 PM 19.4 °F 8.6 °F 15.8 °F 86% 30.06 in 10.0 mi West 9.2 mph - N/A   Overcast
4:15 PM 17.6 °F 9.3 °F 14.0 °F 86% 30.06 in 10.0 mi West 5.8 mph - N/A   Overcast
4:35 PM 17.6 °F 9.3 °F 14.0 °F 86% 30.07 in 10.0 mi West 5.8 mph - N/A   Mostly Cloudy
4:55 PM 15.8 °F 7.2 °F 14.0 °F 93% 30.07 in 10.0 mi WSW 5.8 mph - N/A   Mostly Cloudy
5:15 PM 14.0 °F 5.1 °F 12.2 °F 93% 30.07 in 10.0 mi West 5.8 mph - N/A   Scattered Clouds
5:35 PM 14.0 °F 3.9 °F 12.2 °F 93% 30.07 in 10.0 mi WSW 6.9 mph - N/A   Clear
5:55 PM 12.2 °F 1.7 °F 12.2 °F 100% 30.08 in 10.0 mi SW 6.9 mph - N/A   Clear
6:15 PM 12.2 °F -0.2 °F 12.2 °F 100% 30.08 in 10.0 mi WSW 9.2 mph - N/A   Clear
6:35 PM 10.4 °F -0.4 °F 10.4 °F 100% 30.08 in 10.0 mi WSW 6.9 mph - N/A   Clear
6:55 PM 12.2 °F 0.7 °F 10.4 °F 92% 30.09 in 10.0 mi WSW 8.1 mph - N/A   Clear
7:15 PM 10.4 °F -4.1 °F 10.4 °F 100% 30.10 in 10.0 mi WSW 11.5 mph - N/A   Clear
7:35 PM 10.4 °F -1.5 °F 10.4 °F 100% 30.10 in 10.0 mi West 8.1 mph - N/A   Clear
7:55 PM 10.4 °F -2.4 °F 10.4 °F 100% 30.10 in 10.0 mi West 9.2 mph - N/A   Clear
8:15 PM 10.4 °F -2.4 °F 8.6 °F 92% 30.11 in 10.0 mi West 9.2 mph - N/A   Clear
8:35 PM 8.6 °F -4.7 °F 8.6 °F 100% 30.11 in 10.0 mi West 9.2 mph - N/A   Clear
8:55 PM 8.6 °F -3.7 °F 6.8 °F 92% 30.12 in 7.0 mi WSW 8.1 mph - N/A   Clear
9:15 PM 8.6 °F -1.3 °F 6.8 °F 92% 30.12 in 7.0 mi SW 5.8 mph - N/A   Clear
9:35 PM 8.6 °F -2.6 °F 6.8 °F 92% 30.12 in 7.0 mi WSW 6.9 mph - N/A   Mostly Cloudy
9:55 PM 10.4 °F -1.5 °F 8.6 °F 92% 30.13 in 7.0 mi West 8.1 mph - N/A   Overcast
10:15 PM 10.4 °F -2.4 °F 8.6 °F 92% 30.13 in 7.0 mi West 9.2 mph - N/A   Overcast
10:35 PM 8.6 °F -1.3 °F 6.8 °F 92% 30.13 in 7.0 mi West 5.8 mph - N/A   Overcast
10:55 PM 8.6 °F -1.3 °F 5.0 °F 85% 30.13 in 7.0 mi WSW 5.8 mph - N/A   Scattered Clouds
11:15 PM 6.8 °F -3.5 °F 5.0 °F 92% 30.13 in 7.0 mi WSW 5.8 mph - N/A   Clear
11:35 PM 6.8 °F -5.9 °F 5.0 °F 92% 30.13 in 5.0 mi WSW 8.1 mph - N/A   Scattered Clouds
11:55 PM 8.6 °F -2.6 °F 8.6 °F 100% 30.14 in 7.0 mi WSW 6.9 mph - N/A   Overcast